Location: Morlupo
(42.1333°N, 12.5000°E)
Time: 16:32:16
(UTC+00:00)

SJ-6B - Pass Details

Date: 18 September 2020
Orbit: 511 x 580 km, 97.6° (Epoch: 25 October)

Event Time Altitude Azimuth Distance (km) Brightness Sun altitude
Exits shadow 19:21:30 45° 228° (SW) 703 3.4 -23.7°
Maximum altitude 19:22:04 50° 260° (W) 657 3.4 -23.8°
Drops below altitude 10° 19:25:44 10° 337° (NNW) 1,746 6.0 -24.4°
Sets 19:27:53 0° 343° (NNW) 2,644 6.9 -24.8°
